Location: Chowchilla Mountain
(37.5599°N, 119.7546°W)
Time: 20:30:01
(UTC+00:00)

Meteor 1-16 Rocket - Pass Details

Date: 05 August 2024
Orbit: 789 x 906 km, 81.2° (Epoch: 12 September)

Event Time Altitude Azimuth Distance (km) Brightness Sun altitude
Rises 12:18:18 0° 186° (S) 3,507 7.1 -9.5°
Reaches altitude 10° 12:20:46 10° 186° (S) 2,562 6.4 -9.1°
Maximum altitude 12:26:37 87° 97° (E) 890 4.4 -8.1°
Drops below altitude 10° 12:32:22 10° 10° (N) 2,514 7.2 -7.1°
Sets 12:34:46 0° 10° (N) 3,437 7.9 -6.6°
